Location: Fort Wayne
(41.1310°N, 85.1290°W)
Time: 20:48:58
(UTC-04:00)

Meteor 2-10 Rocket - Visible Passes

Search period start: 22 July 2017 00:00
Search period end: 01 August 2017 00:00
Orbit: 734 x 884 km, 81.2° (Epoch: 22 July)

Date Brightness Start Highest point End Pass type
(mag) Time Alt. Az. Time Alt. Az. Time Alt. Az.
22 Jul 4.5 22:06:52 10° NNW 22:12:32 54° W 22:18:09 10° S visible
23 Jul 4.1 21:42:29 10° NNW 21:48:18 75° W 21:54:05 10° S visible
24 Jul 6.4 23:02:34 10° NW 23:05:17 14° W 23:08:00 10° WSW visible
25 Jul 6.3 22:37:17 10° NW 22:41:15 19° W 22:45:12 10° SW visible
26 Jul 5.9 22:12:27 10° NNW 22:17:10 26° W 22:21:52 10° SW visible
27 Jul 5.4 21:47:48 10° NNW 21:53:04 36° W 21:58:16 10° SSW visible
28 Jul 4.8 21:23:17 10° NNW 21:28:54 50° W 21:34:25 10° SSW visible
30 Jul 6.7 22:19:23 10° WNW 22:21:36 12° W 22:23:48 10° WSW visible
31 Jul 6.4 21:53:54 10° NW 21:57:35 18° W 22:01:13 10° SW visible
